Weather Roundup
Issued by NWS Corpus Christi, TX

Home | Current Version | Previous Version | Text Only | Print | Product List | Glossary On
Versions: 1 2 3 4 5 6 7 8 9 10 11 12 13 14 15 16 17 18 19 20 21 22 23 24 25 26 27 28 29 30 31 32 33 34 35 36 37 38 39 40 41 42 43 44 45 46 47 48 49 50
000
ASUS44 KCRP 300910
HRRCRP

SOUTH TEXAS REGIONAL WEATHER ROUNDUP
NATIONAL WEATHER SERVICE CORPUS CHRISTI TX
400 AM CDT TUE JUN 30 2015


TXZ229>244-301000-
...CORPUS CHRISTI AREA OBSERVATIONS...

CITY           SKY/WX    TMP DP  RH WIND       PRES   REMARKS
CORPUS CHRISTI PTCLDY    78  76  93 SE7       29.97F
NAS CORPUS CHR CLEAR     81  78  91 S8        29.98S
ROCKPORT       PTCLDY    83  77  82 SE5       29.99S HX  92
KINGSVILLE NAS PTCLDY    80  80 100 E5        29.97F FOG
ALICE          CLOUDY    79  77  94 E5        29.97S FOG
FALFURRIAS     CLEAR     78  76  94 SE3       29.96S
$$

...VICTORIA AREA OBSERVATIONS...

CITY           SKY/WX    TMP DP  RH WIND       PRES   REMARKS
VICTORIA       MOCLDY    78  77  96 S8        30.00S
BEEVILLE       FAIR     N/A N/A N/A CALM      29.99F FOG
PLEASANTON     MOCLDY    77  75  93 SE6       30.01S
SAN ANTONIO    CLOUDY    79  73  82 S10       30.03S
$$

...LAREDO AREA OBSERVATIONS...

CITY           SKY/WX    TMP DP  RH WIND       PRES   REMARKS
LAREDO         CLEAR     78  74  87 SE7       29.98F
COTULLA        CLEAR     78  74  87 SE8       29.97F
DEL RIO        CLEAR     76  71  85 E8        29.96F
MCALLEN        CLOUDY    79  73  82 SE7       29.97S
HEBBRONVILLE     N/A     77  75  94 E6        29.98F FOG
$$

...OTHER TEXAS OBSERVATIONS...

CITY           SKY/WX    TMP DP  RH WIND       PRES   REMARKS
BROWNSVILLE    MOCLDY    78  71  79 SE7       29.97S
HOUSTON        MOCLDY    80  75  84 S3        30.01S
COL. STATION   MOCLDY    78  75  90 S6        30.01F
AUSTIN         PTCLDY    75  75 100 SW6       30.01F
WACO           MOCLDY    78  73  84 S8        30.00R
FORT WORTH     LGT RAIN  72  64  76 CALM      30.02S
WICHITA FALLS  MOCLDY    74  61  63 CALM      29.98R
LUBBOCK        MOCLDY    64  61  90 SE9       30.13R
EL PASO        PTCLDY    75  57  53 E6        30.08F
$$

...MARINE OBSERVATIONS...

STATION/POSITION TIME  SKY/WX   TEMP    WIND        PRES    VSBY  WAVE   SWELL
                                AIR SEA DIR/SP/G                  HT/PER HT/PER
                 (UTC)          (F)     (DEG/KT/KT) (MB)    (MI)  (FT/S) (FT/S)
PORT ARANSAS     0800            82 81  160/  8/ 10 1016.0F
BUOY 90 E PORT A NOT AVBL
BUOY 45 SE BAFFI 0850            84 84  160/ 17/ 19 1014.7F         4/ 6
BUOY 200 E PT IS 0850            84 84  130/ 10/ 14 1016.9R         3/ 6   2/ 6
BUOY 15 E GALVES 0850            84 82  190/ 14/ 16 1015.3F         3/ 5
$$


USA.gov is the U.S. government's official web portal to all federal, state and local government web resources and services.